Orbital Elements at Epoch 2453190.5 (2004-Jul-04.0) TDB
Reference: JPL 60 (heliocentric ecliptic J2000)
Element | Value | Uncertainty (1-sigma) | Units |
e | .8350880971909477 | 5.3611e-08 | |
a | 7.730366119265318 | 8.797e-08 | au |
q | 1.274829386138673 | 4.1323e-07 | au |
i | 95.69805019936666 | 2.3761e-05 | deg |
node | 1.398165371226708 | 4.3147e-05 | deg |
peri | 47.09145237546669 | 3.6063e-05 | deg |
M | 343.8652517154134 | 2.6896e-06 | deg |
tp | 2453542.350534576275 (2005-Jun-20.85053458) | 5.904e-05 | TDB |
period | 7850.52175672687 21.49 | 0.00013401 3.669e-07 | d yr |
n | .04585682469977579 | 7.8276e-10 | deg/d |
Q | 14.18590285239196 | 1.6143e-07 | au |
|
| | Orbit Determination Parameters
Additional Information
|